Location: Devore Heights
(34.2372°N, 117.4156°W)
Time: 17:58:03
(UTC+00:00)

deb Explorer IX - Pass Details

Date: 19 September 2024
Orbit: 502 x 816 km, 38.7° (Epoch: 15 October)

Event Time Altitude Azimuth Distance (km) Brightness Sun altitude
Rises 06:19:27 0° 290° (WNW) 3,405 ? -49.4°
Enters shadow 06:20:18 - 290° (WNW) 3,089 ? -49.5°
Reaches altitude 10° 06:22:02 10° 290° (WNW) 2,459 - -49.7°
Maximum altitude 06:27:56 87° 204° (SSW) 820 - -50.3°
Drops below altitude 10° 06:33:29 10° 113° (ESE) 2,310 - -50.9°
Sets 06:35:51 0° 113° (ESE) 3,186 - -51.1°
